Miscellaneous Local Product
Issued by NWS Hastings, NE

Home | Current Version | Previous Version | Graphics & Text | Print | Product List | Glossary On
Versions: 1 2 3 4 5 6 7 8 9 10 11 12 13 14 15 16 17 18 19 20 21 22 23 24 25 26 27 28 29 30 31 32 33 34 35 36 37 38 39 40 41 42 43 44 45 46 47 48 49 50
767
AXUS43 KGID 200802
MISGRI

GID CWA HOURLY WEATHER ROUNDUP
NATIONAL WEATHER SERVICE HASTINGS NE
300 AM CDT FRI OCT 20 2017

NOTE: "FAIR" INDICATES FEW OR NO CLOUDS BELOW 12,000 FEET WITH NO
SIGNIFICANT WEATHER AND/OR OBSTRUCTIONS TO VISIBILITY.

...SOUTH CENTRAL NEBRASKA...

CITY           SKY/WX    TMP DP  RH WIND       PRES   REMARKS
GRAND ISLAND   FAIR      58  48  69 S14       29.91F
HASTINGS       FAIR      58  47  66 S9        29.93F
KEARNEY        FAIR      57  47  69 S13       29.90F
ORD            CLEAR     57  46  66 S12       29.86F
YORK           FAIR      57  48  72 S13       29.94F
AURORA         FAIR      57  46  68 S9        29.93F
LEXINGTON      PTCLDY    56  46  69 S8        29.87F
HOLDREGE       FAIR      56  48  74 S7        29.90F
HEBRON         FAIR      58  50  76 S10       29.96F

...NEBRASKA PANHANDLE...

CITY           SKY/WX    TMP DP  RH WIND       PRES   REMARKS
CHADRON        CLEAR     54  35  48 CALM      29.71S
ALLIANCE       CLEAR     47  40  76 S12       29.78F
SCOTTSBLUFF    CLEAR     48  32  53 E8        29.77F
SIDNEY         PTCLDY    44  39  82 S9        29.80F

...WESTERN AND NORTH CENTRAL NEBRASKA...

CITY           SKY/WX    TMP DP  RH WIND       PRES   REMARKS
VALENTINE      CLEAR     59  43  55 S9        29.76F
AINSWORTH      PTCLDY    59  44  59 S15       29.78F
ONEILL         CLEAR     59  47  64 S13       29.83F
BROKEN BOW     PTCLDY    57  45  64 S10       29.85F
IMPERIAL       CLEAR     56  44  64 S13       29.82F
NORTH PLATTE   PTCLDY    60  45  57 SE5       29.83F
MCCOOK         PTCLDY    59  46  62 S8        29.85F

...EASTERN NEBRASKA...

CITY           SKY/WX    TMP DP  RH WIND       PRES   REMARKS
NORFOLK        FAIR      60  47  61 S17       29.89S
SO SIOUX CITY  FAIR      52  49  89 SE10      29.92S
TEKAMAH        FAIR      58  48  69 S9        29.95S
COLUMBUS       FAIR      60  48  64 S16       29.93F
ALBION         FAIR      58  48  69 S8        29.90F
OMAHA EPPLEY   MOCLDY    57  50  77 S9        29.98F
OFFUTT AFB     FAIR      55  50  85 SE9       29.98F
MILLARD        FAIR      59  51  75 SE5       29.98S
LINCOLN        FAIR      59  49  69 S13       29.97F
NEBRASKA CITY  FAIR      59  53  80 S13       30.01S
BEATRICE       FAIR      59  51  74 S10       29.99F
FALLS CITY     FAIR      59  53  80 S8        30.03S

...NORTHERN KANSAS...

CITY           SKY/WX    TMP DP  RH WIND       PRES   REMARKS
GOODLAND       MOCLDY    56  47  71 S21G30    29.84F
HILL CITY      FAIR      61  47  59 S14G24    29.91F
NORTON         SUNNY     57  41  54 S13       29.88F
PHILLIPSBURG   CLEAR     61  46  59 S5        29.91F
SMITH CENTER   CLEAR     57  46  67 SE9       29.94F
HAYS           FAIR      60  48  64 S15       29.94F
RUSSELL        FAIR      58  51  78 S17       29.94F
CONCORDIA      FAIR      60  53  77 S21G28    29.97F
SALINA         FAIR      63  54  72 S14G22    30.00S
TOPEKA         FAIR      62  55  77 S13       30.05S



USA.gov is the U.S. government's official web portal to all federal, state and local government web resources and services.